SWA2619 KBOS-KJFK

Flight info

Callsign SWA2619
Flight time 0h 49m
Altitude 22000
Route SSOXS7 SSOXS BUZRD SEY PARCH3
Aircraft B736/M-SDE2E3FGHIRWXY/LB1

Departure

Time 2026-05-07 23:43
Airport Boston Logan International Airport (KBOS)

Arrival

Time 2026-05-08 00:32
Airport John F. Kennedy International Airport (KJFK)
Time Latitude Longitude Altitude Speed Heading
2026-05-07 23:25 42.35992 -71.01704 24 ft 0 kts 316°
2026-05-07 23:32 42.35982 -71.01691 30 ft 3 kts 316°
2026-05-07 23:32 42.35968 -71.01674 27 ft 3 kts 316°
2026-05-07 23:32 42.35955 -71.01656 27 ft 3 kts 316°
2026-05-07 23:33 42.35942 -71.01640 30 ft 2 kts 301°
2026-05-07 23:33 42.35941 -71.01619 30 ft 2 kts 224°
2026-05-07 23:33 42.35941 -71.01618 30 ft 0 kts 223°
2026-05-07 23:35 42.35888 -71.01581 27 ft 17 kts 108°
2026-05-07 23:36 42.35865 -71.01423 24 ft 17 kts 96°
2026-05-07 23:36 42.35850 -71.01269 24 ft 16 kts 92°
2026-05-07 23:36 42.35929 -71.01178 27 ft 16 kts 20°
2026-05-07 23:36 42.36031 -71.01129 24 ft 16 kts 20°
2026-05-07 23:37 42.36143 -71.01075 26 ft 10 kts 20°
2026-05-07 23:37 42.36205 -71.00986 24 ft 19 kts 99°
2026-05-07 23:37 42.36157 -71.00839 27 ft 25 kts 114°
2026-05-07 23:37 42.36079 -71.00555 26 ft 29 kts 108°
2026-05-07 23:38 42.36014 -71.00304 28 ft 27 kts 108°
2026-05-07 23:38 42.35958 -71.00077 27 ft 23 kts 106°
2026-05-07 23:38 42.35970 -70.99867 25 ft 22 kts 77°
2026-05-07 23:38 42.36007 -70.99664 26 ft 22 kts 76°
2026-05-07 23:39 42.36042 -70.99470 24 ft 22 kts 76°
2026-05-07 23:39 42.36078 -70.99257 29 ft 25 kts 75°
2026-05-07 23:39 42.36119 -70.99014 24 ft 26 kts 75°
2026-05-07 23:39 42.36118 -70.98855 24 ft 0 kts 147°
2026-05-07 23:42 42.36094 -70.98842 25 ft 9 kts 163°
2026-05-07 23:42 42.36013 -70.98855 26 ft 13 kts 240°
2026-05-07 23:42 42.36002 -70.98897 28 ft 0 kts 254°
2026-05-07 23:42 42.36000 -70.98907 27 ft 14 kts 255°
2026-05-07 23:43 42.35883 -70.99567 24 ft 127 kts 257°
2026-05-07 23:43 42.35619 -71.01020 656 ft 170 kts 258°
2026-05-07 23:43 42.35269 -71.02797 1523 ft 214 kts 256°
2026-05-07 23:43 42.34861 -71.04742 2816 ft 232 kts 246°
2026-05-07 23:44 42.33621 -71.06098 3816 ft 234 kts 212°
2026-05-07 23:44 42.32202 -71.07168 3985 ft 239 kts 205°
2026-05-07 23:44 42.30532 -71.07280 3988 ft 253 kts 165°
2026-05-07 23:44 42.28943 -71.06174 4440 ft 260 kts 152°
2026-05-07 23:45 42.27311 -71.04939 4946 ft 276 kts 153°
2026-05-07 23:45 42.25605 -71.03678 5752 ft 281 kts 153°
2026-05-07 23:45 42.23872 -71.02421 6682 ft 283 kts 154°
2026-05-07 23:45 42.22713 -71.01590 7235 ft 287 kts 155°
2026-05-07 23:46 42.20928 -71.00324 8090 ft 293 kts 156°
2026-05-07 23:46 42.19100 -70.99060 9019 ft 297 kts 158°
2026-05-07 23:46 42.17241 -70.97777 9952 ft 302 kts 158°
2026-05-07 23:46 42.15341 -70.96454 10602 ft 318 kts 158°
2026-05-07 23:47 42.13286 -70.95029 10828 ft 346 kts 158°
2026-05-07 23:47 42.11061 -70.93489 11073 ft 371 kts 158°
2026-05-07 23:47 42.08730 -70.91869 11693 ft 382 kts 158°
2026-05-07 23:47 42.06354 -70.90216 12536 ft 386 kts 159°
2026-05-07 23:48 42.03964 -70.88557 13457 ft 389 kts 160°
2026-05-07 23:48 42.01560 -70.86895 13843 ft 389 kts 160°
2026-05-07 23:48 41.99143 -70.85228 13961 ft 390 kts 161°
2026-05-07 23:48 41.96721 -70.83565 13984 ft 390 kts 162°
2026-05-07 23:49 41.94255 -70.82523 13979 ft 366 kts 184°
2026-05-07 23:49 41.91772 -70.82958 14274 ft 352 kts 204°
2026-05-07 23:49 41.89510 -70.84139 15177 ft 344 kts 213°
2026-05-07 23:49 41.87530 -70.85868 16173 ft 337 kts 221°
2026-05-07 23:50 41.85658 -70.87769 17087 ft 338 kts 222°
2026-05-07 23:50 41.83802 -70.89709 18022 ft 338 kts 222°
2026-05-07 23:50 41.81970 -70.91630 18777 ft 340 kts 222°
2026-05-07 23:50 41.80084 -70.93598 19336 ft 346 kts 222°
2026-05-07 23:51 41.78161 -70.95590 19963 ft 351 kts 222°
2026-05-07 23:51 41.76213 -70.97597 20617 ft 354 kts 222°
2026-05-07 23:51 41.74247 -70.99612 21282 ft 357 kts 221°
2026-05-07 23:51 41.72265 -71.01636 21755 ft 360 kts 221°
2026-05-07 23:52 41.70266 -71.03672 21787 ft 361 kts 221°
2026-05-07 23:52 41.68268 -71.05704 21789 ft 361 kts 221°
2026-05-07 23:52 41.66266 -71.07737 21803 ft 361 kts 221°
2026-05-07 23:52 41.64289 -71.09743 21776 ft 362 kts 221°
2026-05-07 23:53 41.62281 -71.11779 21785 ft 362 kts 221°
2026-05-07 23:53 41.60272 -71.13815 21796 ft 362 kts 221°
2026-05-07 23:53 41.58271 -71.15842 21800 ft 362 kts 221°
2026-05-07 23:53 41.56266 -71.17872 21804 ft 362 kts 221°
2026-05-07 23:54 41.54256 -71.19905 21803 ft 362 kts 221°
2026-05-07 23:54 41.52248 -71.21934 21805 ft 362 kts 221°
2026-05-07 23:54 41.50240 -71.23960 21804 ft 362 kts 221°
2026-05-07 23:54 41.48230 -71.25988 21813 ft 362 kts 221°
2026-05-07 23:55 41.46221 -71.28014 21780 ft 362 kts 221°
2026-05-07 23:55 41.44209 -71.30041 21812 ft 362 kts 221°
2026-05-07 23:55 41.42204 -71.32060 21815 ft 362 kts 221°
2026-05-07 23:55 41.40192 -71.34083 21822 ft 362 kts 221°
2026-05-07 23:56 41.38181 -71.36104 21823 ft 362 kts 221°
2026-05-07 23:56 41.36169 -71.38126 21823 ft 363 kts 221°
2026-05-07 23:56 41.34176 -71.40125 21826 ft 363 kts 221°
2026-05-07 23:56 41.32158 -71.42148 21828 ft 363 kts 221°
2026-05-07 23:57 41.30140 -71.44170 21834 ft 363 kts 221°
2026-05-07 23:57 41.28121 -71.46192 21831 ft 363 kts 221°
2026-05-07 23:57 41.26103 -71.48212 21831 ft 363 kts 221°
2026-05-07 23:57 41.24082 -71.50232 21832 ft 363 kts 221°
2026-05-07 23:58 41.22057 -71.52255 21833 ft 363 kts 221°
2026-05-07 23:58 41.20043 -71.54265 21833 ft 362 kts 221°
2026-05-07 23:58 41.18245 -71.56560 21850 ft 357 kts 236°
2026-05-07 23:58 41.16967 -71.59385 21839 ft 358 kts 243°
2026-05-07 23:59 41.16072 -71.62477 21829 ft 361 kts 254°
2026-05-07 23:59 41.15600 -71.65764 21837 ft 363 kts 258°
2026-05-07 23:59 41.15207 -71.69076 21830 ft 364 kts 258°
2026-05-07 23:59 41.14832 -71.72360 21831 ft 365 kts 258°
2026-05-08 00:00 41.14447 -71.75680 21796 ft 365 kts 258°
2026-05-08 00:00 41.14052 -71.79002 21844 ft 364 kts 258°
2026-05-08 00:00 41.13650 -71.82320 21843 ft 364 kts 258°
2026-05-08 00:00 41.13241 -71.85638 21848 ft 364 kts 258°
2026-05-08 00:01 41.12830 -71.88949 21856 ft 364 kts 258°
2026-05-08 00:01 41.12417 -71.92259 21863 ft 364 kts 258°
2026-05-08 00:01 41.12002 -71.95573 21857 ft 364 kts 258°
2026-05-08 00:01 41.11585 -71.98895 21853 ft 365 kts 258°
2026-05-08 00:02 41.11169 -72.02209 21833 ft 363 kts 258°
2026-05-08 00:02 41.10758 -72.05481 21548 ft 357 kts 258°
2026-05-08 00:02 41.10352 -72.08695 21315 ft 351 kts 258°
2026-05-08 00:02 41.09943 -72.11884 21061 ft 351 kts 257°
2026-05-08 00:03 41.09343 -72.15010 20801 ft 349 kts 251°
2026-05-08 00:03 41.08594 -72.18059 20546 ft 348 kts 250°
2026-05-08 00:03 41.07805 -72.21085 20297 ft 347 kts 250°
2026-05-08 00:03 41.07017 -72.24100 20056 ft 346 kts 250°
2026-05-08 00:04 41.06239 -72.27117 19833 ft 345 kts 250°
2026-05-08 00:04 41.05472 -72.30127 19585 ft 344 kts 250°
2026-05-08 00:04 41.04716 -72.33123 19342 ft 342 kts 250°
2026-05-08 00:04 41.03966 -72.36112 19100 ft 341 kts 250°
2026-05-08 00:05 41.03221 -72.39091 18837 ft 340 kts 250°
2026-05-08 00:05 41.02487 -72.42029 18602 ft 340 kts 250°
2026-05-08 00:05 41.01745 -72.44995 18366 ft 339 kts 250°
2026-05-08 00:05 41.01005 -72.47953 18128 ft 338 kts 250°
2026-05-08 00:06 41.00265 -72.50909 17869 ft 338 kts 250°
2026-05-08 00:06 40.99531 -72.53834 17291 ft 334 kts 250°
2026-05-08 00:06 40.98809 -72.56714 16667 ft 327 kts 250°
2026-05-08 00:06 40.98097 -72.59548 16042 ft 321 kts 251°
2026-05-08 00:07 40.97393 -72.62346 15432 ft 317 kts 251°
2026-05-08 00:07 40.96698 -72.65104 14805 ft 314 kts 251°
2026-05-08 00:07 40.96019 -72.67798 14234 ft 311 kts 251°
2026-05-08 00:07 40.95341 -72.70487 13735 ft 305 kts 252°
2026-05-08 00:08 40.94670 -72.73139 13093 ft 303 kts 252°
2026-05-08 00:08 40.94002 -72.75778 12479 ft 302 kts 252°
2026-05-08 00:08 40.93323 -72.78415 12155 ft 306 kts 250°
2026-05-08 00:08 40.92095 -72.80748 12035 ft 318 kts 226°
2026-05-08 00:09 40.90340 -72.82518 12009 ft 313 kts 221°
2026-05-08 00:09 40.88607 -72.84152 11990 ft 297 kts 220°
2026-05-08 00:09 40.86976 -72.85679 11991 ft 278 kts 221°
2026-05-08 00:09 40.85448 -72.87118 11992 ft 261 kts 221°
2026-05-08 00:10 40.84031 -72.88461 11990 ft 246 kts 222°
2026-05-08 00:10 40.82683 -72.89744 11993 ft 231 kts 222°
2026-05-08 00:10 40.81418 -72.90951 11993 ft 217 kts 223°
2026-05-08 00:10 40.80232 -72.92083 11988 ft 204 kts 223°
2026-05-08 00:11 40.79122 -72.93146 11985 ft 191 kts 224°
2026-05-08 00:11 40.78104 -72.94208 12004 ft 182 kts 232°
2026-05-08 00:11 40.77431 -72.95589 12004 ft 184 kts 248°
2026-05-08 00:11 40.76847 -72.97181 11610 ft 203 kts 247°
2026-05-08 00:12 40.76191 -72.98959 10817 ft 227 kts 247°
2026-05-08 00:12 40.75458 -73.00931 10001 ft 249 kts 247°
2026-05-08 00:12 40.74674 -73.03014 9477 ft 256 kts 247°
2026-05-08 00:12 40.73880 -73.05108 9169 ft 253 kts 247°
2026-05-08 00:13 40.73097 -73.07165 9008 ft 249 kts 247°
2026-05-08 00:13 40.72322 -73.09200 8680 ft 248 kts 247°
2026-05-08 00:13 40.71547 -73.11245 8220 ft 251 kts 247°
2026-05-08 00:13 40.70776 -73.13328 7854 ft 251 kts 251°
2026-05-08 00:14 40.70496 -73.15551 7616 ft 246 kts 274°
2026-05-08 00:14 40.70609 -73.17798 7420 ft 247 kts 276°
2026-05-08 00:14 40.70762 -73.20063 7219 ft 249 kts 277°
2026-05-08 00:14 40.70918 -73.22316 7028 ft 250 kts 277°
2026-05-08 00:15 40.71077 -73.24604 6836 ft 251 kts 277°
2026-05-08 00:15 40.71233 -73.26898 6655 ft 252 kts 277°
2026-05-08 00:15 40.71387 -73.29201 6476 ft 252 kts 277°
2026-05-08 00:15 40.71545 -73.31500 6319 ft 252 kts 277°
2026-05-08 00:16 40.71721 -73.33786 6202 ft 249 kts 277°
2026-05-08 00:16 40.71902 -73.36093 5808 ft 257 kts 277°
2026-05-08 00:16 40.72084 -73.38425 5561 ft 253 kts 277°
2026-05-08 00:16 40.72258 -73.40709 5346 ft 249 kts 277°
2026-05-08 00:17 40.72570 -73.42939 5144 ft 246 kts 286°
2026-05-08 00:17 40.72996 -73.45038 5015 ft 226 kts 287°
2026-05-08 00:17 40.73388 -73.46942 4868 ft 205 kts 287°
2026-05-08 00:17 40.73743 -73.48677 4704 ft 187 kts 287°
2026-05-08 00:18 40.74064 -73.50269 4511 ft 174 kts 288°
2026-05-08 00:18 40.74366 -73.51794 4370 ft 170 kts 287°
2026-05-08 00:18 40.74661 -73.53298 4240 ft 170 kts 287°
2026-05-08 00:18 40.74957 -73.54819 4119 ft 169 kts 287°
2026-05-08 00:19 40.75241 -73.56279 3966 ft 160 kts 287°
2026-05-08 00:19 40.75509 -73.57682 3840 ft 155 kts 287°
2026-05-08 00:19 40.75769 -73.59056 3725 ft 155 kts 287°
2026-05-08 00:19 40.76025 -73.60423 3611 ft 156 kts 287°
2026-05-08 00:20 40.76287 -73.61817 3503 ft 157 kts 287°
2026-05-08 00:20 40.76551 -73.63227 3385 ft 159 kts 286°
2026-05-08 00:20 40.76466 -73.64679 3244 ft 164 kts 246°
2026-05-08 00:20 40.75685 -73.65770 3274 ft 166 kts 221°
2026-05-08 00:21 40.74767 -73.66709 3285 ft 167 kts 222°
2026-05-08 00:21 40.73824 -73.67662 3083 ft 173 kts 219°
2026-05-08 00:21 40.72859 -73.68562 3016 ft 169 kts 216°
2026-05-08 00:21 40.71875 -73.69385 2987 ft 169 kts 204°
2026-05-08 00:22 40.70722 -73.69462 3030 ft 169 kts 170°
2026-05-08 00:22 40.69558 -73.69126 3005 ft 175 kts 167°
2026-05-08 00:22 40.68370 -73.68769 2990 ft 174 kts 167°
2026-05-08 00:22 40.67199 -73.68416 3008 ft 172 kts 167°
2026-05-08 00:23 40.66071 -73.67904 2986 ft 172 kts 142°
2026-05-08 00:23 40.65453 -73.66647 3005 ft 163 kts 96°
2026-05-08 00:23 40.65548 -73.65178 3030 ft 164 kts 77°
2026-05-08 00:23 40.65733 -73.63664 3019 ft 175 kts 77°
2026-05-08 00:24 40.65989 -73.62047 2988 ft 183 kts 63°
2026-05-08 00:24 40.66819 -73.60848 3016 ft 177 kts 30°
2026-05-08 00:24 40.67876 -73.60011 2992 ft 177 kts 27°
2026-05-08 00:24 40.68940 -73.59204 2996 ft 176 kts 27°
2026-05-08 00:25 40.69998 -73.58406 2987 ft 176 kts 27°
2026-05-08 00:25 40.71109 -73.57571 3018 ft 194 kts 27°
2026-05-08 00:25 40.72314 -73.56671 3002 ft 200 kts 27°
2026-05-08 00:25 40.73527 -73.55767 3011 ft 202 kts 27°
2026-05-08 00:26 40.74835 -73.55169 2991 ft 200 kts 359°
2026-05-08 00:26 40.76151 -73.55684 2834 ft 203 kts 323°
2026-05-08 00:26 40.77095 -73.57045 2701 ft 201 kts 308°
2026-05-08 00:26 40.77903 -73.58495 2494 ft 188 kts 308°
2026-05-08 00:27 40.78618 -73.59829 2279 ft 172 kts 302°
2026-05-08 00:27 40.78830 -73.61325 2058 ft 163 kts 257°
2026-05-08 00:27 40.78305 -73.62594 2013 ft 162 kts 238°
2026-05-08 00:27 40.77653 -73.63814 1998 ft 162 kts 237°
2026-05-08 00:28 40.77008 -73.65009 1988 ft 159 kts 237°
2026-05-08 00:28 40.76303 -73.66132 1979 ft 162 kts 218°
2026-05-08 00:28 40.75325 -73.66908 2006 ft 167 kts 214°
2026-05-08 00:28 40.74329 -73.67735 2011 ft 171 kts 214°
2026-05-08 00:29 40.73329 -73.68545 2008 ft 166 kts 214°
2026-05-08 00:29 40.72344 -73.69332 1998 ft 165 kts 213°
2026-05-08 00:29 40.71352 -73.70116 1971 ft 165 kts 213°
2026-05-08 00:29 40.70403 -73.70865 1934 ft 159 kts 213°
2026-05-08 00:30 40.69476 -73.71593 1671 ft 153 kts 213°
2026-05-08 00:30 40.68586 -73.72294 1292 ft 146 kts 214°
2026-05-08 00:30 40.67716 -73.72986 828 ft 141 kts 211°
2026-05-08 00:30 40.66900 -73.73611 610 ft 128 kts 213°
2026-05-08 00:31 40.66168 -73.74200 418 ft 120 kts 210°
2026-05-08 00:31 40.65458 -73.74767 311 ft 117 kts 209°
2026-05-08 00:31 40.64770 -73.75298 150 ft 114 kts 207°
2026-05-08 00:31 40.64112 -73.75813 32 ft 103 kts 210°
2026-05-08 00:32 40.63571 -73.76234 22 ft 80 kts 210°
2026-05-08 00:32 40.63142 -73.76567 19 ft 65 kts 208°
2026-05-08 00:32 40.62982 -73.76774 19 ft 35 kts 238°
2026-05-08 00:32 40.62927 -73.76937 19 ft 7 kts 267°
2026-05-08 00:33 40.62967 -73.77049 20 ft 22 kts 300°
2026-05-08 00:33 40.63047 -73.77225 20 ft 22 kts 302°
2026-05-08 00:33 40.63124 -73.77395 20 ft 21 kts 298°